Regional Weather Roundup
Issued by NWS

Home | Current Version | Previous Version | Graphics & Text | Print | Product List | Glossary On
Versions: 1 2 3 4 5 6 7 8 9 10 11 12 13 14 15 16 17 18 19 20 21 22 23 24 25 26 27 28 29 30 31 32 33 34 35 36 37 38 39 40 41 42 43 44 45 46 47 48 49 50
133
ASUS43 KOAX 281502
RWRNE

WEATHER ROUNDUP FOR NEBRASKA
NATIONAL WEATHER SERVICE OMAHA NE
1000 AM CDT WED SEP 28 2016

NOTES: SATELLITE DATA IS BEING USED TO AUGMENT CLOUD COVER ABOVE
       12000 FEET.
       "FAIR" INDICATES FEW OR NO CLOUDS BELOW 12,000 FEET WITH NO
       SIGNIFICANT WEATHER AND/OR OBSTRUCTIONS TO VISIBILITY.

  * THESE STATIONS DO NOT REPORT WEATHER SUCH AS RAIN...SNOW OR FOG.

NEZ001>004-019>022-054>056-281600-
NEBRASKA PANHANDLE

CITY           SKY/WX    TMP DP  RH WIND       PRES   REMARKS
SCOTTSBLUFF    SUNNY     56  43  61 NW8       30.30R
ALLIANCE       SUNNY     58  47  66 CALM      30.28R
CHADRON        SUNNY     58  45  62 W5        30.27R
KIMBALL        SUNNY     64  42  45 CALM      30.33R
SIDNEY         SUNNY     63  43  48 N9        30.30R
$$

NEZ057>060-069>072-079>082-281600-
SOUTHWEST NEBRASKA

CITY           SKY/WX    TMP DP  RH WIND       PRES   REMARKS
NORTH PLATTE   SUNNY     59  47  64 CALM      30.23R
IMPERIAL       SUNNY     61  42  49 N7        30.25R
LEXINGTON      SUNNY     59  46  60 N3        30.21R
MCCOOK         SUNNY     60  46  59 CALM      30.22R
OGALLALA       SUNNY     65  43  43 N7        30.25R
$$

NEZ005>010-023>029-035>040-094-281600-
NORTH CENTRAL NEBRASKA

CITY           SKY/WX    TMP DP  RH WIND       PRES   REMARKS
VALENTINE      SUNNY     55  38  52 CALM      30.24R
AINSWORTH      SUNNY     55  44  67 CALM      30.23R
BROKEN BOW     SUNNY     60  38  43 N8        30.21R
O`NEILL        SUNNY     53  42  65 N7        30.23R
ORD            SUNNY     58  39  49 N8        30.20R
THEDFORD       SUNNY     59  45  59 NE5       30.25R
$$

NEZ041-046>049-061>064-073>077-083>087-281600-
SOUTH CENTRAL NEBRASKA

CITY           SKY/WX    TMP DP  RH WIND       PRES   REMARKS
GRAND ISLAND   SUNNY     57  42  57 N10       30.19R
AURORA         SUNNY     57  42  57 N13       30.18R
HASTINGS       SUNNY     57  42  57 N9        30.20R
HEBRON         SUNNY     58  42  55 N9        30.16R
HOLDREGE       SUNNY     59  40  48 N7        30.20R
KEARNEY *      SUNNY     59  39  47 N9        30.19R
YORK           SUNNY     54  45  71 N13       30.19R
$$

NEZ011>018-030>034-042>045-281600-
NORTHEAST NEBRASKA

CITY           SKY/WX    TMP DP  RH WIND       PRES   REMARKS
NORFOLK        SUNNY     53  43  68 N12       30.19R
ALBION         SUNNY     53  42  66 N7        30.20R
BLAIR          SUNNY     53  45  74 N16       30.16R
FREMONT        SUNNY     53  44  72 N8G16     30.17R
TEKAMAH        SUNNY     53  44  71 N16G22    30.17R
WAYNE          MOSUNNY   52  44  75 N14       30.20R
$$

NEZ050>053-065>068-078-088>093-281600-
SOUTHEAST NEBRASKA

CITY           SKY/WX    TMP DP  RH WIND       PRES   REMARKS
LINCOLN        SUNNY     57  46  66 N12       30.18R
OMAHA EPPLEY   MOSUNNY   53  44  71 N13       30.16R
BEATRICE       SUNNY     58  45  63 NE12G18   30.15R
FALLS CITY     SUNNY     56  45  66 N15G26    30.11R
NEBRASKA CITY  SUNNY     55  42  60 N13       30.14R
$$

NEZ044-045-051>053-067-281600-
OMAHA AREA

CITY           SKY/WX    TMP DP  RH WIND       PRES   REMARKS
OMAHA EPPLEY   MOSUNNY   53  44  71 N13       30.16R
BLAIR          SUNNY     53  45  74 N16       30.16R
FREMONT        SUNNY     53  44  72 N8G16     30.17R
MILLARD        SUNNY     55  44  67 N7        30.15R
OFFUTT AFB     SUNNY     53  45  74 N14       30.14R
WAHOO          FAIR      55  44  66 N12       30.17R
$$




USA.gov is the U.S. government's official web portal to all federal, state and local government web resources and services.